AB1IG Weather Reports


Display with metric or nautical units.
time (UTC)temp
F
wind
direction
speed
MPH
gust
MPH
rain 1hr
in
rain 24hr
in
rain mn
in
humidity
%
barometer
mb
20260507171514 67 204 1.0 9.0 0.00 0.00 0.00 44 1016.0
20260507170011 67 211 1.0 8.0 0.00 0.00 0.00 44 1016.3
20260507164508 66 32 0.0 6.0 0.00 0.00 0.00 47 1016.6
20260507163004 65 140 2.0 10.0 0.00 0.00 0.00 47 1016.8
20260507161503 64 146 1.0 7.0 0.00 0.00 0.00 48 1016.9
20260507160118 63 145 2.0 5.0 0.00 0.00 0.00 46 1017.1
20260507154557 62 160 2.0 8.0 0.00 0.00 0.00 49 1017.2
20260507153054 61 243 1.0 6.0 0.00 0.00 0.00 49 1017.3
20260507151550 60 108 2.0 5.0 0.00 0.00 0.00 51 1017.6
20260507150047 58 231 2.0 6.0 0.00 0.00 0.00 54 1017.7
20260507144556 57 302 2.0 6.0 0.00 0.00 0.00 56 1017.9
20260507143039 56 124 0.0 3.0 0.00 0.00 0.00 59 1018.1
20260507141534 55 247 1.0 4.0 0.00 0.00 0.00 62 1018.2
20260507140033 53 110 1.0 4.0 0.00 0.00 0.00 68 1018.3
20260507134531 51 290 0.0 3.0 0.00 0.00 0.00 72 1018.4
20260507133029 50 243 0.0 2.0 0.00 0.00 0.00 75 1018.4
20260507131530 48 203 1.0 3.0 0.00 0.00 0.00 78 1018.3
20260507130032 47 243 0.0 3.0 0.00 0.00 0.00 80 1018.2
20260507124525 46 276 0.0 3.0 0.00 0.00 0.00 81 1018.1
20260507123034 45 236 0.0 2.0 0.00 0.00 0.00 81 1018.0
20260507121522 45 236 0.0 2.0 0.00 0.00 0.00 82 1017.7
20260507120022 43 236 0.0 1.0 0.00 0.00 0.00 84 1017.6
20260507114520 43 121 0.0 1.0 0.00 0.00 0.00 84 1017.5
20260507113026 43 121 0.0 0.0 0.00 0.00 0.00 84 1017.5
20260507111519 44 121 0.0 0.0 0.00 0.00 0.00 82 1017.4
20260507110019 44 121 0.0 1.0 0.00 0.00 0.00 81 1017.4
20260507104518 44 121 0.0 0.0 0.00 0.00 0.00 81 1017.3
20260507103016 44 122 0.0 0.0 0.00 0.00 0.00 81 1017.3
20260507101518 44 121 0.0 0.0 0.00 0.00 0.00 80 1017.2
20260507100015 45 121 0.0 0.0 0.00 0.00 0.00 79 1017.2
20260507094515 45 121 0.0 1.0 0.00 0.00 0.00 79 1017.0
20260507093014 45 121 0.0 0.0 0.00 0.00 0.00 81 1017.2
20260507091513 43 121 0.0 0.0 0.00 0.00 0.00 84 1017.1
20260507090013 43 121 0.0 0.0 0.00 0.00 0.00 85 1017.0
20260507084514 43 121 0.0 0.0 0.00 0.00 0.00 83 1016.8
20260507083007 44 121 0.0 0.0 0.00 0.00 0.00 84 1016.9
20260507081505 45 121 0.0 0.0 0.00 0.00 0.00 84 1017.0
20260507080007 45 122 0.0 0.0 0.00 0.00 0.00 83 1017.0
20260507074507 45 121 0.0 0.0 0.00 0.00 0.00 80 1016.9
20260507073059 46 121 0.0 0.0 0.00 0.00 0.00 80 1017.2
20260507071606 46 121 0.0 0.0 0.00 0.00 0.00 78 1017.0
20260507070056 46 121 0.0 0.0 0.00 0.00 0.00 79 1017.1
20260507064607 47 121 0.0 0.0 0.00 0.00 0.00 76 1016.9
20260507063054 47 121 0.0 0.0 0.00 0.00 0.00 74 1017.0
20260507061548 48 121 0.0 0.0 0.00 0.00 0.00 72 1017.2
20260507060044 49 121 0.0 0.0 0.00 0.00 0.00 68 1017.5
20260507054543 50 121 0.0 0.0 0.00 0.00 0.00 66 1017.7
20260507053038 52 121 0.0 0.0 0.00 0.00 0.00 64 1017.6
20260507051534 53 121 0.0 0.0 0.00 0.00 0.00 61 1017.5
20260507050038 53 19 0.0 1.0 0.00 0.00 0.00 61 1017.4
20260507044530 54 19 0.0 4.0 0.00 0.00 0.00 60 1017.4
20260507043028 54 48 0.0 3.0 0.00 0.00 0.00 60 1017.2
20260507041545 54 39 0.0 4.0 0.00 0.00 0.00 60 1016.8
20260507040025 55 46 1.0 4.0 0.00 0.00 0.00 60 1016.2
20260507034526 55 52 1.0 4.0 0.00 0.00 0.00 59 1016.2
20260507033026 56 90 2.0 7.0 0.00 0.00 0.00 57 1016.4
20260507031522 56 46 1.0 4.0 0.00 0.00 0.00 57 1016.3
20260507030020 56 60 0.0 5.0 0.00 0.00 0.00 57 1016.1
20260507024519 57 47 1.0 4.0 0.00 0.00 0.00 55 1015.7
20260507023020 57 47 1.0 6.0 0.00 0.00 0.00 55 1015.6
20260507021517 58 52 2.0 8.0 0.00 0.00 0.00 53 1015.5
20260507020019 58 34 2.0 6.0 0.00 0.00 0.00 53 1015.2
20260507014525 59 15 3.0 8.0 0.00 0.00 0.00 52 1015.1
20260507013032 59 37 4.0 10.0 0.00 0.00 0.00 52 1014.8
20260507011530 60 25 4.0 8.0 0.00 0.00 0.00 50 1014.7
20260507010015 60 36 3.0 7.0 0.00 0.00 0.00 50 1014.6
20260507004517 61 65 3.0 7.0 0.00 0.00 0.00 49 1014.6
20260507003014 62 46 5.0 8.0 0.00 0.00 0.00 49 1014.5
20260507001623 62 29 3.0 7.0 0.00 0.00 0.00 49 1014.4
20260507000023 62 54 2.0 9.0 0.00 0.00 0.00 49 1014.3
20260506234513 62 22 2.0 8.0 0.00 0.00 0.00 50 1014.3
20260506233011 62 40 1.0 6.0 0.00 0.00 0.00 49 1014.1
20260506231513 64 64 0.0 6.0 0.00 0.00 0.00 48 1013.9
20260506230010 64 19 1.0 7.0 0.00 0.00 0.00 48 1013.9
20260506224509 64 351 4.0 10.0 0.00 0.00 0.00 47 1013.6
20260506223007 64 43 3.0 10.0 0.00 0.00 0.00 48 1013.4
20260506221510 65 51 2.0 8.0 0.00 0.00 0.00 46 1013.3
20260506220007 65 24 5.0 8.0 0.00 0.00 0.00 46 1013.4
20260506214506 65 8 2.0 7.0 0.00 0.00 0.00 48 1013.4
20260506213003 64 323 2.0 13.0 0.00 0.00 0.00 49 1013.6
20260506211600 63 22 2.0 8.0 0.00 0.00 0.00 51 1013.9
20260506211501 63 49 1.0 8.0 0.00 0.00 0.00 51 1013.8
20260506210121 63 97 3.0 9.0 0.00 0.00 0.00 51 1014.0
20260506204558 62 40 2.0 8.0 0.00 0.00 0.00 53 1014.0
20260506203102 62 57 4.0 10.0 0.00 0.00 0.00 53 1014.1
20260506201557 62 39 4.0 10.0 0.00 0.00 0.00 53 1014.3
20260506200137 62 29 2.0 9.0 0.00 0.00 0.00 53 1014.4
20260506194603 61 29 5.0 11.0 0.00 0.00 0.00 53 1014.5
20260506193052 60 47 3.0 9.0 0.00 0.00 0.00 55 1014.6
20260506191552 59 30 2.0 9.0 0.00 0.00 0.00 56 1014.8
20260506190051 60 66 4.0 8.0 0.00 0.00 0.00 54 1014.9
20260506184553 60 26 2.0 11.0 0.00 0.00 0.00 55 1014.9
20260506183052 60 53 2.0 8.0 0.00 0.00 0.00 56 1015.0
20260506181549 61 222 2.0 8.0 0.00 0.00 0.00 52 1015.2
20260506180053 61 62 2.0 7.0 0.00 0.00 0.00 53 1015.3
20260506174546 59 49 4.0 10.0 0.00 0.00 0.00 56 1015.5
20260506173050 58 308 4.0 12.0 0.00 0.00 0.00 55 1015.6